• MPC Preparation (Info)

  • MPEC 2022-W96 : 2022 WG2

    The following Minor Planet Electronic Circular may be linked-to from your own Web pages, but must not otherwise be redistributed electronically.

    A form allowing access to any MPEC is at the bottom of this page.


    Read MPEC 2022-W95 Read MPEC 2022-W97


    M.P.E.C. 2022-W96                             Issued 2022 November 20, 21:44 UT
    
         The Minor Planet Electronic Circulars contain information on unusual
             minor planets, routine data on comets and natural satellites,
             and occasional editorial announcements.  They are published
        on behalf of Division F of the International Astronomical Union by the
              Minor Planet Center, Smithsonian Astrophysical Observatory,
                              Cambridge, MA 02138, U.S.A.
    			  
                 Prepared using the Tamkin Foundation Computer Network
    
                                  MPC@CFA.HARVARD.EDU
                URL https://www.minorplanetcenter.net/    ISSN 1523-6714
    
                                    2022 WG2                                 
    
    
    Observations:
         K22W02G* C2022 11 18.44797303 11 01.623+01 25 35.93         21.46wUEW096F51
         K22W02G  C2022 11 18.45943403 10 59.918+01 26 03.88         21.47wUEW096F51
         K22W02G  C2022 11 18.47082303 10 58.217+01 26 31.79         21.77wUEW096F51
         K22W02G  C2022 11 18.48219103 10 56.549+01 26 59.43         21.49wUEW096F51
         K22W02G |C2022 11 19.15559 03 09 21.68 +01 55 02.8          21.0 GVEW096807
         K22W02G |C2022 11 19.15929 03 09 21.10 +01 55 12.1          21.0 GVEW096807
         K22W02G |C2022 11 19.16299 03 09 20.56 +01 55 21.4          21.2 GVEW096807
         K22W02G  C2022 11 19.48000103 08 34.670+02 08 20.35         21.14GVEW096F51
         K22W02G  C2022 11 19.48064803 08 34.568+02 08 21.95         21.35GVEW096F51
         K22W02G KC2022 11 20.14685 03 06 59.90 +02 36 31.4          21.4 VqEW096H36
         K22W02G IC2022 11 20.16233 03 06 57.57 +02 37 11.8                qEW096H36
         K22W02G KC2022 11 20.17781 03 06 55.24 +02 37 51.3          20.9 VqEW096H36
         K22W02G KC2022 11 20.18839 03 06 53.89 +02 38 19.8          20.9 GXEW096858
         K22W02G KC2022 11 20.19752 03 06 52.50 +02 38 43.4          20.3 GXEW096858
         K22W02G KC2022 11 20.20586 03 06 51.20 +02 39 05.0          21.2 GXEW096858
         K22W02G bC2022 11 20.81311503 05 23.39 +03 05 17.3          20.9 GVEW096L01
         K22W02G bC2022 11 20.81521503 05 23.01 +03 05 23.0          20.1 GVEW096L01
         K22W02G bC2022 11 20.81815503 05 22.60 +03 05 29.4          21.1 GVEW096L01
         K22W02G bC2022 11 20.82067803 05 22.23 +03 05 36.1          21.0 GVEW096L01
         K22W02G bC2022 11 20.82343103 05 21.75 +03 05 44.8          20.9 GVEW096L01
    
    Observer details:
    807 Cerro Tololo Observatory, La Serena.  Observers T. Linder, R. Holmes, L.
        Horn.  1.00-m f/10.0 astrograph + CCD.
    858 Tebbutt Observatory, Edgewood.  Observer F. B. Zoltowski.  0.51-m f/8.1
        Schmidt-Cassegrain + CCD.
    F51 Pan-STARRS 1, Haleakala.  Observers J. Bulger, T. Lowe, A. Schultz, I.
        Smith, K. Chambers.  Measurers K. Chambers, S. Chastel, T. de Boer, J.
        Fairlamb, H. Gao, M. Huber, C.-C. Lin, E. Magnier, Y. Ramanjooloo, R.
        Wainscoat, R. Weryk.  1.8-m Ritchey-Chretien + CCD.
    H36 Sandlot Observatory, Scranton.  Observer G. Hug.  0.56-m f/4.8 .56 meter
        reflector + CCD.
    L01 Visnjan Observatory, Tican.  Observer K. Korlevic.  1.0-m f/2.9 reflector
        + CCD.
    
    Orbital elements:
    2022 WG2                                                 Earth MOID = 0.3350 AU
    Epoch 2022 Aug. 9.0 TT = JDT 2459800.5                  Veres                   
    M 309.83576              (2000.0)            P               Q                  
    n   0.29816736     Peri.   39.96590     -0.16933836     -0.90743861             
    a   2.2190273      Node    63.05783     +0.75754316     -0.36943702             
    e   0.4331726      Incl.   25.55456     +0.63043864     +0.20017858             
    P   3.31           H   21.54          G   0.15           U   9                  
    Residuals in seconds of arc
    221118 F51  0.1+  0.0     221119 F51  0.0   0.0     221120 858  0.0   0.0
    221118 F51  0.0   0.0     221119 F51  0.0   0.0     221120 L01  0.3+  0.2+
    221118 F51  0.2-  0.0     221120 H36  0.3+  0.8-    221120 L01  0.7-  0.4+
    221118 F51  0.1+  0.2-    221120 H36  0.2+  0.2-    221120 L01  0.2-  0.9-
    221119 807  0.2+  0.0     221120 H36  0.2+  0.5-    221120 L01  0.1-  0.8-
    221119 807  0.2-  0.0     221120 858  0.8+  0.2-    221120 L01  1.1-  0.7+
    221119 807  0.0   0.1+    221120 858  0.6+  0.1-
    
    Ephemeris:
    2022 WG2                 a,e,i = 2.22, 0.43, 26                  q = 1.2578
    Date    TT    R. A. (2000) Decl.     Delta      r    Elong.  Phase     V
    2022 10 21    03 55 15.2 -09 53 04   0.6505  1.5557   140.9    23.8    22.7
    ...
    2022 11 05    03 38 12.6 -05 48 23   0.5238  1.4808   154.2    17.0    21.9
    ...
    2022 11 13    03 23 12.8 -01 57 55   0.4730  1.4434   160.0    13.6    21.5
    ...
    2022 11 19    03 09 43.8 +01 48 22   0.4445  1.4168   161.3    12.9    21.3
    2022 11 20    03 07 20.7 +02 30 25   0.4407  1.4125   161.2    13.1    21.3
    2022 11 21    03 04 55.7 +03 13 38   0.4370  1.4082   160.9    13.3    21.3
    ...
    2022 11 27    02 50 02.5 +07 54 41   0.4209  1.3836   156.7    16.4    21.2
    ...
    2022 12 05    02 30 29.1 +14 48 45   0.4143  1.3534   147.5    23.0    21.4
    ...
    2022 12 20    02 01 31.4 +27 43 06   0.4417  1.3064   128.7    36.0    21.8
    
    M. P. C. Staff               (C) Copyright 2022 MPC           M.P.E.C. 2022-W96
    


    Read MPEC 2022-W95 Read MPEC 2022-W97


    MPEC number:

    Enter an MPEC number in one of the following forms:

    • 1997-B01 (the full form)
    • J97B01 (the packed version of the full form)
    • B01 (the abbreviated form)